STARLINK-11578

Satellite information

Favourite Embed

Satellite Type and Status

PAYLOADIN ORBIT

Key statistics

Satellite STARLINK-11578 at a glance.

Uptime

263

Days in orbit

Revolutions

≈ 15.7

Per day

Orbit

LEO

Low Earth Orbit

Inclination

43.0

Latest

Satellite identification and parameters

Extended collection of information and parameters for STARLINK-11578.

Object identification

Identified? True

Debris? False

Object name: STARLINK-11578

International designator: 2025-032K

Object number (NORAD): 63014

Object ID (CCSDS): 63014

Country: UNITED STATES OF AMERICA (US)

Current information (Y/N): Y

RCS size: LARGE

Orbital parameters

Period: 91.671 minutes

Inclination: 43.0019 deg

SMA: 6734.658 km

Apoapsis: 358.806 km

Periapsis: 354.241 km

RAAN: 228.2445 deg

Eccentricy: 0.0003389

Argument of periapsis: 289.2174 deg

Mean anomaly: 70.8327 deg

Mean motion: 15.7083087 rev/day

Mean motion (dot): 0.00207932 rev/day2

B* drag term: 0.0015841 1/REarth

Two-line elements (TLE)

Creation date: Nov. 5, 2025, 12:06 a.m.

Reference frame: TEME

Reference center: EARTH

Epoch: Nov. 4, 2025, 8 p.m. UTC

TLE line 0: 0 STARLINK-11578

TLE line 1: 1 63014U 25032K 25308.83343071 .00207932 00000-0 15841-2 0 9997

TLE line 2: 2 63014 43.0019 228.2445 0003389 289.2174 70.8327 15.70830870 42525

Live tracking on map

Real-time ground track for satellite STARLINK-11578.

In-orbit conjunctions

There are no conjunctions computed for STARLINK-11578, at the moment. Check back to stay up to date, as we update our databases every day.

Go to all conjunctions

Associated space launch

A batch of 21 satellites for the Starlink mega-constellation - SpaceX's project for space-based Internet communication system.

STARLINK-11578 was lifted into orbit during the mission ‘Falcon 9 Block 5 | Starlink Group 12-8’, on board a Falcon 9 space rocket.

The launch took place on Feb. 15, 2025, 6:14 a.m. from Space Launch Complex 40.

For more information about the launch, click the button.

Launch to space Falcon 9 Block 5 | Starlink Group 12-8
Falcon 9 Block 5 | Starlink Group 12-8

Agency: SpaceX

Status: Launch Successful

Launch date: Feb. 15, 2025, 6:14 a.m. UTC

Rocket: Falcon 9

Launch pad: Space Launch Complex 40

Location: Cape Canaveral SFS, FL, USA

...

Latest news about this satellite

News about space launch
Live coverage: SpaceX to launch 21 Starlink satellites on Falcon 9 rocket from Cape Canaveral

The Starlink 12-8 mission will be SpaceX’s 20 orbital launch of the year and send 21 Starlink satellites to low Earth orbit. Liftoff is set for 1:14 a.m. EST (0614 UTC).

News about space launch
Launch Roundup: Starlink and CZ-8A launches planned; Falcon booster to land in Bahamas

China will be conducting the debut flight of an upgraded version of the Chang Zheng… The post Launch Roundup: Starlink and CZ-8A launches planned; Falcon booster to land in Bahamas appeared first on NASASpaceFlight.com.


Newsletter sign-up

Weekly statistics, charts and insights to help you stay on top of the space industry.